Flag for Germany Weather past 2 weeks in Delbrück, North Rhine-Westphalia, Germany

Now
55 °F

Passing clouds.


Feels Like: 52 °F
Forecast: 47 / 68 °F
Wind: 12 mph from Northeast

Location: Paderborn / Lippstadt


UV Index: 3 (Moderate)

Visibility: N/A


Pressure: 30.04 "Hg

Humidity: 59%

Dew point: 41 °F

Location of DelbrückLocation

Historic Weather in Delbrück

°F

Delbrück temperature yesterday

Maximum temperature yesterday: 52 °F (at 2:50 PM)
Minimum temperature yesterday: 39 °F (at 10:50 PM)
Average temperature yesterday: 44 °F

Past Weeks' High & Low Weather Summary

 TemperatureHumidityPressure
High68 °F (Apr 7, 4:50 PM)100% (Apr 5, 3:20 AM)30.45 "Hg (Apr 5, 3:20 AM)
Low28 °F (Apr 16, 4:50 AM)29% (Apr 17, 5:50 PM)29.77 "Hg (Apr 4, 4:50 PM)
Average49 °F71%30.07 "Hg
* Reported Apr 4 2:20 PM — Apr 19 2:50 PM, Delbrück, Weather by CustomWeather, © 2014

Note: Actual official high and low records may vary slightly from our data, if they occured in-between our weather recording intervals... More about our weather records

Advertising

Historic Weather Conditions — Data for Previous 24 hours

 ConditionsComfort  
Time TempWeatherWind HumidityBarometerVisibility
2:50 PM
Apr 19
55 °FPassing clouds.12 mph59%30.04 "HgN/A
2:20 PM54 °FPassing clouds.9 mph58%30.04 "HgN/A
1:50 PM55 °FPassing clouds.12 mph55%30.04 "HgN/A
1:20 PM52 °FPassing clouds.13 mph58%30.07 "HgN/A
12:50 PM52 °FPassing clouds.12 mph58%30.07 "HgN/A
12:20 PM52 °FPassing clouds.14 mph58%30.07 "HgN/A
11:50 AM50 °FPassing clouds.15 mph58%30.07 "HgN/A
11:20 AM50 °FPassing clouds.13 mph62%30.07 "HgN/A
10:50 AM48 °FPassing clouds.10 mph71%30.07 "HgN/A
10:20 AM46 °FPassing clouds.10 mph76%30.07 "HgN/A
9:50 AM43 °FPassing clouds.12 mph87%30.09 "HgN/A
9:20 AM43 °FScattered clouds.9 mph93%30.07 "HgN/A
8:50 AM39 °FPartly sunny.10 mph100%30.07 "Hg5 mi
8:20 AM39 °FFog.9 mph100%30.07 "Hg2 mi
7:50 AM39 °FFog.8 mph93%30.07 "Hg2 mi
7:20 AM36 °FPassing clouds.3 mph100%30.07 "Hg4 mi
6:50 AM36 °FPassing clouds.7 mph100%30.04 "Hg4 mi
6:20 AM32 °FLight fog.3 mph100%30.01 "Hg4 mi
5:50 AM34 °FLight fog.5 mph100%30.01 "Hg1 mi
5:20 AM37 °FPassing clouds.3 mph93%30.01 "HgN/A
4:50 AM37 °FPassing clouds.5 mph100%30.01 "HgN/A
4:20 AM37 °FPassing clouds.3 mph100%30.01 "HgN/A
11:50 PM
Apr 18
39 °FRain. Passing clouds.3 mph100%29.98 "HgN/A
11:20 PM39 °FRain. Passing clouds.2 mph100%29.98 "HgN/A
10:50 PM39 °FRain. Passing clouds.8 mph100%29.98 "HgN/A
10:20 PM41 °FLight rain. Partly cloudy.9 mph87%29.98 "HgN/A
9:50 PM45 °FPartly cloudy.6 mph66%29.95 "HgN/A
9:20 PM45 °FPartly sunny.6 mph66%29.95 "HgN/A
8:50 PM45 °FSunny.6 mph66%29.95 "Hg10 mi
8:20 PM46 °FSunny.6 mph62%29.92 "Hg10 mi
7:50 PM46 °FPassing clouds.7 mph62%29.92 "HgN/A
7:20 PM46 °FScattered showers. Scattered clouds.8 mph62%29.92 "HgN/A
6:50 PM46 °FScattered showers. Scattered clouds.9 mph66%29.92 "HgN/A
6:20 PM48 °FHail. Scattered clouds.8 mph62%29.92 "HgN/A
5:50 PM48 °FScattered clouds.9 mph62%29.92 "HgN/A
5:20 PM46 °FScattered clouds.9 mph66%29.92 "HgN/A
4:50 PM46 °FSprinkles. Scattered clouds.10 mph62%29.92 "HgN/A
4:20 PM48 °FSprinkles. Scattered clouds.10 mph54%29.92 "HgN/A
3:50 PM50 °FScattered clouds.9 mph50%29.92 "HgN/A
3:20 PM48 °FScattered clouds.13 mph50%29.92 "HgN/A
Weather by CustomWeather, © 2014

See weather overview